EHI
0 0 0 0 0 0 0 0 0 0 0 0 0 0 0 0 0 0 0 0 0 0 0 0 0 0 0 0 0 0 0 0 0 0 0 0 0 0 0 0 0 0 0
0 0 0 0 0 0 0 0 0 0 0 0 0 0 0 0 0 0 0 0 0 0 0 0 0 0 0 0 0 0 0 0 0 0 0 0 0 0 0 0 0 0 0
0 0 0 0 0 0 0 0 0 0 0 0 0 0 0 0 0 0 0 0 0 0 0 0 0 0 0 0 0 0 0 0 0 0 0 0 0 0 0 0 0 0 0
0 0 0 0 0 0 0 0 0 0 0 0 0 0 0 0 0 0 0 0 0 0 0 0 0 0 0 0 0 0 0 0 0 0 0 0 0 0 0 0 0 0 0
0 0 0 0 0 0 0 0 0 0 0 0 0 0 0 0 0 0 0 0 0 0 0 0 0 0 0 0 0 0 0 0 0 0 0 0 0 0 0 0 0 0 0
0 0 0 0 0 0 0 0 0 0 0 0 0 0 0 0 0 0 0 0 0 0 0 0 0 0 0 0 0 0 0 0 0 0 0 0 0 0 0 0 0 0 0
0 0 0 0 0 0 0 0 0 0 0 0 0 0 0 0 0 0 0 0 0 0 0 0 0 0 0 0 0 0 0 0 0 0 0 0 0 0 0 0 0 0 0
0 0 0 0 0 0 0 0 0 0 0 0 0 0 0 0 0 0 0 0 0 0 0 0 0 0 0 0 0 0 0 0 0 0 0 0 0 0 0 0 0 0 0
0 0 0 0 0 0 0 0 0 0 0 0 0 0 0 0 0 0 0 0 0 0 0 0 0 0 0 0 0 0 0 0 0 0 0 0 0 0 0 0 0 0 0
0 0 0 0 0 0 0 0 0 0 0 0 0 0 0 0 0 0 0 0 0 0 0 0 0 0 0 0 0 0 0 0 0 0 0 0 0 0 0 0 0 0 0
0 0 0 0 0 0 0 0 0 0 0 0 0 0 0 0 0 0 0 0 0 0 0 0 0 0 0 0 0 0 0 0 0 0 0 0 0 0 0 0 0 0 0
0 0 0 0 0 0 0 0 0 0 0 0 0 0 0 0 0 0 0 0 0 0 0 0 0 0 0 0 0 0 0 0 0 0 0 0 0 0 0 0 0 0 0
0 0 0 0 0 0 0 0 0 0 0 0 0 0 0 0 0 0 0 0 0 0 0 0 0 0 0 0 0 0 0 0 0 0 0 0 0 0 0 0 0 0 0
0 0 0 0 0 0 0 0 0 0 0 0 0 0 0 0 0 0 0 0 0 0 0 0 0 0 0 0 0 0 0 0 0 0 0 0 0 0 0 0 0 0 0
0 0 0 0 0 0 0 0 0 0 0 0 0 0 0 0 0 0 0 0 0 0 0 0 0 0 0 0 0 0 0 0 0 0 0 0 0 0 0 0 0 0 0
0 0 0 0 0 0 0 0 0 0 0 0 0 0 0 0 0 0 0 0 0 0 0 0 0 0 0 0 0 0 0 0 0 0 0 0 0 0 0 0 0 0 0
0 0 0 0 0 0 0 0 0 0 0 0 0 0 0 0 0 0 0 0 0 0 0 0 0 0 0 0 0 0 0 0 0 0 0 0 0 0 0 0 0 0 0
0 0 0 0 0 0 0 0 0 0 0 0 0 0 0 0 0 0 0 0 0 0 0 0 0 0 0 0 0 0 0 0 0 0 0 0 0 0 0 0 0 0 0
0 0 0 0 0 0 0 0 0 0 0 0 0 0 0 0 0 0 0 0 0 0 0 0 0 0 0 0 0 0 0 0 0 0 0 0 0 0 0 0 0 0 0
0 0 0 0 0 0 0 0 0 0 0 0 0 0 0 0 0 0 0 0 0 0 0 0 0 0 0 0 0 0 0 0 0 0 0 0 0 0 0 0 0 0 0
0 0 0 0 0 0 0 0 0 0 0 0 0 0 0 0 0 0 0 0 0 0 0 0 0 0 0 0 0 0 0 0 0 0 0 0 0 0 0 0 0 0 0
0 0 0 0 0 0 0 0 0 0 0 0 0 0 0 0 0 0 0 0 0 0 0 0 0 0 0 0 0 0 0 0 0 0 0 0 0 0 0 0 0 0 0
0 0 0 0 0 0 0 0 0 0 0 0 0 0 0 0 0 0 0 0 0 0 0 0 0 0 0 0 0 0 0 0 0 0 0 0 0 0 0 0 0 0 0
0 0 0 0 0 0 0 0 0 0 0 0 0 0 0 0 0 0 0 0 0 0 0 0 0 0 0 0 0 0 0 0 0 0 0 0 0 0 0 0 0 0 0
0 0 0 0 0 0 0 0 0 0 0 0 0 0 0 0 0 0 0 0 0 0 0 0 0 0 0 0 0 0 0 0 0 0 0 0 0 0 0 0 0 0 0
0 0 0 0 0 0 0 0 0 0 0 0 0 0 0 0 0 0 0 0 0 0 0 0 0 0 0 0 0 0 0 0 0 0 0 0 0 0 0 0 0 0 0
Wind_Speed
5 4 4 4 4 4 4 4 4 4 4 4 4 4 4 3 3 3 3 3 3 2 2 1 1 1 0 1 2 2 3 4 6 5 5 6 7 7 6 5 5 4 5
4 4 4 4 5 5 5 5 4 4 4 4 4 4 4 4 3 3 3 3 3 3 3 2 1 1 2 2 3 4 4 4 8 10 6 5 6 6 5 5 4 4 4
4 4 5 5 5 5 5 4 5 4 5 5 4 4 4 4 4 4 3 4 4 4 3 3 2 3 4 4 5 5 5 7 7 10 8 5 4 4 5 4 4 3 3
4 4 5 5 4 4 4 5 5 5 5 5 5 4 4 4 4 4 5 5 5 5 5 4 4 4 4 5 6 7 8 10 9 9 8 5 4 4 4 4 3 2 2
4 4 4 4 4 4 5 5 5 5 5 5 5 5 5 4 4 4 5 5 6 6 6 6 6 8 8 6 7 8 9 9 8 8 7 5 4 3 3 2 3 2 2
4 3 3 4 4 5 4 5 5 6 6 6 6 6 6 5 7 8 6 6 6 7 7 7 8 9 11 13 13 11 10 10 9 7 6 6 5 4 3 3 3 2 1
3 3 3 3 4 4 4 5 6 5 6 7 7 7 7 8 10 10 10 7 8 7 7 6 7 8 9 10 13 14 12 10 8 7 8 6 5 5 5 4 3 2 1
3 3 3 3 4 4 5 5 5 5 6 6 7 7 7 8 11 11 10 9 9 9 8 7 8 8 8 9 10 11 10 8 7 6 6 5 5 4 4 4 4 3 2
3 3 3 3 3 4 5 4 4 5 6 6 6 7 7 8 10 10 8 7 8 9 9 9 8 8 10 11 11 11 10 8 10 11 9 8 7 6 5 4 4 3 1
3 3 3 3 3 4 4 4 4 5 5 6 7 7 7 7 8 9 8 6 7 7 7 9 11 10 10 10 9 9 9 6 6 7 8 7 6 6 4 2 3 2 1
3 3 4 4 3 3 4 4 4 5 6 6 7 6 7 7 8 10 9 6 6 6 6 6 6 11 12 12 9 7 7 6 6 6 6 5 4 3 3 2 1 1 1
3 4 4 4 4 4 4 4 4 5 6 5 5 6 5 6 8 9 11 9 7 6 5 4 5 10 12 11 8 8 9 7 5 5 4 4 3 2 2 1 0 1 2
4 5 4 5 5 4 4 5 4 4 4 4 4 4 4 4 6 9 10 9 9 6 4 6 7 10 10 8 9 8 6 5 4 4 3 2 1 1 1 1 1 1 1
5 4 4 5 5 5 4 4 4 3 3 3 3 3 3 3 4 4 4 4 6 6 4 6 8 10 8 6 6 5 4 3 3 3 2 1 1 1 2 2 2 2 2
4 4 4 4 4 4 4 4 3 2 1 2 1 1 2 2 2 2 2 2 2 2 3 4 4 4 4 4 4 4 3 3 3 2 2 2 2 2 2 2 2 1 2
4 3 3 2 2 3 3 4 7 5 5 3 2 2 1 1 1 3 4 4 4 4 4 3 3 3 3 2 2 2 2 2 2 1 1 1 1 1 1 1 1 1 1
3 3 2 2 2 2 2 2 3 4 7 7 5 3 3 2 3 4 4 5 5 5 4 2 2 1 1 1 1 1 1 1 1 1 1 1 0 1 1 1 1 1 2
3 2 2 1 1 1 2 2 2 2 2 3 4 3 3 3 3 3 3 3 3 3 2 1 1 0 0 0 0 0 0 0 0 0 0 0 1 1 1 2 2 2 3
2 2 1 1 1 1 1 1 1 1 1 1 1 2 3 2 2 3 2 1 1 1 0 0 1 1 1 1 1 1 1 1 1 1 1 1 1 1 2 2 2 3 3
1 2 2 2 1 1 1 1 1 1 1 1 1 1 1 1 1 1 1 0 1 1 1 1 1 2 2 2 1 1 1 2 2 2 2 2 2 2 3 4 3 3 4
2 1 2 2 1 1 1 1 2 2 2 2 2 2 2 1 2 2 2 2 2 2 2 2 2 2 2 2 2 3 3 3 3 3 3 3 3 3 3 4 4 4 5
2 2 2 1 1 2 2 2 2 2 3 4 3 2 4 3 2 3 3 3 3 3 3 3 3 3 3 3 3 3 4 4 4 4 4 4 4 4 4 4 5 5 5
2 2 1 1 1 2 2 2 3 3 3 4 4 3 2 3 3 4 4 4 3 3 3 3 4 4 4 4 4 4 5 5 5 4 4 4 4 4 4 5 6 7 7
2 2 2 1 1 1 2 2 3 3 3 3 3 4 4 4 4 5 5 4 4 4 3 4 5 6 7 5 4 5 6 6 5 5 7 6 6 5 5 6 7 8 8
3 3 2 2 2 2 2 2 3 3 3 4 4 4 4 4 5 5 5 4 5 5 6 5 5 6 8 10 8 7 7 8 7 5 5 5 7 7 7 8 8 8 9
4 4 3 3 3 3 3 3 3 4 4 4 5 5 5 5 5 5 5 5 5 5 6 5 7 9 9 8 9 9 8 8 8 7 6 5 7 7 8 7 10 9 10
Wind_Direction
28 26 27 21 18 20 25 18 9 4 3 5 8 13 15 16 20 27 30 31 35 21 13 15 356 343 125 130 130 130 121 124 125 111 104 112 105 105 99 88 90 93 106
31 30 27 23 24 27 24 15 12 13 12 13 20 24 23 26 27 33 39 38 39 32 19 31 32 69 88 101 112 114 112 113 125 123 117 108 101 106 102 98 97 101 110
37 35 29 24 25 25 20 15 16 20 21 20 28 33 31 33 36 34 41 42 43 42 37 46 51 81 89 92 102 106 105 105 108 118 116 104 97 106 104 96 92 91 117
39 36 31 23 20 20 22 25 24 26 28 24 27 34 36 41 44 42 47 48 50 51 50 52 59 76 93 100 102 105 107 108 109 113 114 109 102 102 109 112 105 90 101
40 35 27 22 28 31 30 31 33 33 32 29 35 38 37 40 41 49 57 58 58 59 56 56 66 79 87 98 107 111 113 113 115 117 117 115 114 122 120 118 118 110 85
40 31 24 31 36 37 33 36 41 37 34 39 42 45 44 45 45 52 65 66 63 63 63 61 66 71 82 88 94 100 111 122 125 123 125 128 127 125 118 122 124 122 111
37 33 34 38 43 37 42 45 42 39 45 47 44 49 50 43 49 57 62 70 65 58 59 65 72 71 80 90 87 84 83 91 108 123 129 133 138 146 138 126 122 113 102
44 37 35 41 47 45 51 50 43 43 47 48 48 50 52 42 47 56 62 67 64 55 54 62 75 71 79 92 91 84 77 73 85 99 117 126 132 139 137 131 131 115 89
52 41 35 48 56 54 54 51 49 56 52 46 44 48 52 38 39 50 61 67 64 55 50 54 68 75 78 90 93 90 83 71 72 83 90 97 107 119 128 121 117 112 92
47 41 42 55 63 62 60 59 57 63 60 57 50 43 48 43 36 46 58 72 69 61 52 48 55 71 73 82 92 96 91 83 86 81 75 71 81 91 100 116 135 127 121
55 58 57 57 64 69 67 66 67 67 66 60 55 43 41 40 39 45 55 69 75 70 60 48 48 67 73 74 81 89 100 99 86 85 80 74 71 71 69 74 135 161 157
70 66 61 57 59 69 75 71 67 69 69 59 56 47 36 33 41 50 58 65 73 79 70 57 63 73 73 73 78 91 95 90 86 81 75 67 62 53 37 25 10 223 240
77 71 67 64 55 57 73 78 70 66 71 62 59 55 36 30 37 50 58 63 67 76 73 78 81 78 73 69 72 79 82 84 86 83 75 55 23 353 349 5 25 8 310
83 73 67 69 62 54 54 62 73 69 73 72 68 61 46 35 30 28 38 52 59 68 66 65 68 68 68 66 60 57 60 72 88 87 75 46 27 38 40 26 22 11 13
86 79 73 69 71 65 58 50 63 57 90 115 109 102 82 59 358 7 51 50 56 77 81 61 54 52 55 53 52 51 53 63 70 69 71 61 46 43 32 24 23 20 18
90 78 74 79 76 77 79 61 48 56 60 84 125 133 84 98 70 63 63 66 78 97 84 71 63 60 63 59 57 51 50 55 56 68 67 56 39 30 25 21 22 7 343
116 110 95 87 85 80 76 79 57 33 46 55 60 76 82 67 58 59 70 72 72 81 78 81 82 75 76 78 73 60 40 32 45 67 66 46 30 4 355 348 344 332 320
116 116 117 114 109 102 98 93 90 75 37 11 15 31 45 48 47 47 62 66 50 46 65 83 95 112 175 191 200 196 229 331 65 3 323 304 299 303 306 304 306 300 302
135 137 138 135 128 130 124 112 106 99 86 350 343 348 1 15 30 29 48 68 55 9 4 273 236 243 241 230 228 223 222 237 248 255 267 269 266 263 272 277 280 280 279
148 160 158 148 145 150 155 158 168 182 222 264 278 287 328 15 5 349 4 256 247 257 260 253 245 236 232 230 230 225 231 240 245 247 252 257 255 250 260 271 276 279 277
153 164 162 154 162 177 184 194 204 211 230 251 260 250 220 223 252 264 266 253 245 252 252 249 243 237 229 227 226 228 233 244 245 248 253 255 256 256 258 262 268 271 274
159 165 172 188 195 200 209 210 207 218 234 247 261 261 229 227 246 257 262 263 256 247 241 237 246 243 234 230 225 225 234 243 245 242 247 252 254 257 261 265 271 274 275
170 171 178 197 206 213 215 215 216 225 236 243 248 250 240 237 246 251 257 262 259 251 238 226 238 248 243 234 228 225 234 242 243 239 243 254 258 261 264 268 273 278 280
185 194 207 220 210 213 226 234 235 237 240 246 247 247 245 242 246 250 253 256 256 254 243 233 236 245 249 246 236 233 237 243 245 244 241 248 256 262 263 266 270 275 279
200 211 217 221 221 227 237 242 243 247 249 248 249 251 251 248 248 252 252 251 251 251 251 245 242 246 250 250 250 248 244 242 242 241 239 242 252 258 263 268 272 277 278
214 220 224 223 225 229 234 245 251 250 250 252 251 251 252 252 253 253 250 246 246 248 252 252 249 249 251 253 255 254 250 248 245 237 233 242 249 256 260 264 272 273 278